Overview Statistics Trail Chart Weather Telemetry Raw packets
 

This is the latest recevied weather packets stored in our database for station/object 9W2KHE-10. If no packets are shown the sender has not sent any weather packets the latest 10 day(s).

<< 18 19 20 21 22 23 24 >>
Time Temp. Humidity Pressure Rain* Wind** Luminosity Snow
1788128995 28.33° C 61% 1014.2 hPa - - - -
1788128095 28.33° C 62% 1014.6 hPa - - - -
1788127198 28.33° C 61% 1014.9 hPa - - - -
1788126298 28.33° C 62% 1014.8 hPa - - - -
1788125398 27.78° C 62% 1014.8 hPa - - - -
1788124498 27.78° C 64% 1015 hPa - - - -
1788123598 27.78° C 63% 1015.4 hPa - - - -
1788122697 27.78° C 63% 1015.6 hPa - - - -
1788121797 28.33° C 61% 1015.6 hPa - - - -
1788120913 28.33° C 61% 1015.5 hPa - - - -
1788119997 28.33° C 60% 1015.5 hPa - - - -
1788119097 28.89° C 61% 1015.5 hPa - - - -
1788118197 28.89° C 59% 1015.5 hPa - - - -
1788117297 30° C 57% 1015.4 hPa - - - -
1788116397 30.56° C 61% 1014.1 hPa - - - -
1788115496 30.56° C 60% 1013.9 hPa - - - -
1788114596 31.11° C 60% 1013.8 hPa - - - -
1788113696 31.11° C 60% 1013.9 hPa - - - -
1788112796 31.11° C 60% 1014 hPa - - - -
1788111896 31.11° C 60% 1014.3 hPa - - - -
1788110996 31.11° C 59% 1014.6 hPa - - - -
1788110096 31.11° C 59% 1014.6 hPa - - - -
1788109196 31.11° C 59% 1014.6 hPa - - - -
1788108295 31.67° C 59% 1014.7 hPa - - - -
1788107395 31.67° C 59% 1014.5 hPa - - - -

* Rain since midnight (hover to see other rain measurements)
** Current wind speed in m/s (hover to see current wind gust speed)